Regional Weather Roundup
Issued by NWS

Home | Current Version | Previous Version | Text Only | Print | Product List | Glossary Off
Versions: 1 2 3 4 5 6 7 8 9 10 11 12 13 14 15 16 17 18 19 20 21 22 23 24 25 26 27 28 29 30 31 32 33 34 35 36 37 38 39 40 41 42 43 44 45 46 47 48 49 50

610
ASUS43 KLOT 240504
RWRIL

ILLINOIS REGIONAL WEATHER ROUNDUP
NATIONAL WEATHER SERVICE CHICAGO/ROMEOVILLE IL
1200 AM CDT TUE OCT 24 2017

NOTE: "FAIR" INDICATES FEW OR NO CLOUDS BELOW 12,000 FEET WITH NO
SIGNIFICANT WEATHER AND/OR OBSTRUCTIONS TO VISIBILITY.

* THESE STATIONS ARE NOT UNDER NWS QUALITY CONTROL. THEY ALSO MAY NOT
  REPORT WEATHER SUCH AS PRECIPITATION OR FOG.

ILZ001-002-007-009-015-016-024-240600-
NORTHWEST ILLINOIS

CITY           SKY/WX    TMP DP  RH WIND       PRES   REMARKS
MOLINE         CLOUDY    51  37  58 W15G23    29.72F
STERLING*      PTCLDY    48  42  80 W16         N/A
SAVANNA*       CLOUDY    49  43  80 W12G18    29.68F
$$

ILZ003-004-008-010-011-017-018-240600-
NORTH CENTRAL ILLINOIS

CITY           SKY/WX    TMP DP  RH WIND       PRES   REMARKS
ROCKFORD       LGT RAIN  47  44  90 W13       29.65F
FREEPORT*      CLOUDY    47  40  77 W14       29.66F
ROCHELLE*      CLOUDY    48  43  82 W10       29.65F
DE KALB*       CLOUDY    48  46  90 W9G18     29.63F
PERU*          CLOUDY    48  40  74 W14       29.67F
$$

ILZ005-006-012>014-019>023-240600-
NORTHEAST ILLINOIS

CITY           SKY/WX    TMP DP  RH WIND       PRES   REMARKS
CHICAGO-OHARE  LGT RAIN  51  46  83 W13G22    29.59F
CHICAGO-MIDWAY LGT RAIN  51  48  89 W13       29.59F
AURORA         LGT RAIN  50  48  93 W10       29.63F
LANSING*       LGT RAIN  50  49  95 W16G22    29.61F
JOLIET*        DRIZZLE   51  50  96 W6        29.64F
WAUKEGAN       CLOUDY    51  47  86 W8        29.56S
DUPAGE AIRPORT LGT RAIN  49  48  97 W10       29.61F FOG
KANKAKEE*      DRIZZLE   50  49  96 W9        29.65F
WHEELING       LGT RAIN  52  48  86 W10       29.59F
MORRIS*        LGT RAIN  50  49  95 W7        29.64F
NORTHERLY ISL    N/A     52  46  80 W10         N/A
$$

LMZ740>746-240600-
SOUTHERN LAKE MICHIGAN

STATION/POSITION SKY/WX   TEMP    WIND        PRES    VSBY  WAVE
                          AIR SEA DIR/SP/G                  HT/PER
                          (F)     (DEG/KT/KT) (MB)    (MI)  (FT/S)
SOUTHERN BUOY              54 60  300/ 12/ 14 1000.7          2/ 5
WILMETTE HARBOR            54 57  280/ 17/ 21   N/A           3/ 5
HARRISON CRIB              54     280/ 21/ 25   N/A
BURNHAM HARBOR             52     250/  7/ 17   N/A
CALUMET HARBOR             52     250/  7/ 14 1001.7F
BURNS HARBOR               54     240/ 16/ 20 1002.4F
MICHIGAN CITY              52     210/ 14/ 17   N/A
MICHIGAN CITY 6N           54 57  260/ 17/ 21   N/A           4/ 6
ST. JOSEPH                 55 58  260/ 16/ 19 1001.4F         5/ 5
$$

ILZ025>027-034>036-040-047-049-050-058-095>099-240600-
WEST-CENTRAL ILLINOIS

CITY           SKY/WX    TMP DP  RH WIND       PRES   REMARKS
QUINCY         CLOUDY    51  35  54 NW18G26   29.84F
MACOMB*        CLOUDY    48  40  74 W16G23    29.81F
JACKSONVILLE*  MOCLDY    50  39  66 W13G23    29.80F
PITTSFIELD*    CLOUDY    53  40  61 W13G21    29.84F
$$

ILZ028>032-037-038-041>044-048-051>054-059>061-240600-
CENTRAL ILLINOIS

CITY           SKY/WX    TMP DP  RH WIND       PRES   REMARKS
PONTIAC        CLOUDY    51  49  92 W15       29.68F
BLOOMINGTON    CLOUDY    49  44  83 W17G26    29.71F
DECATUR        CLOUDY    49  49 100 W8        29.75F
PEORIA         CLEAR     49  41  74 W10       29.73F
LACON*         CLOUDY    49  41  72 W12       29.70F
LINCOLN*       MOCLDY    50  44  79 W7        29.74F
SPRINGFIELD    CLOUDY    52  43  71 NW15G21   29.78F
TAYLORVILLE    CLOUDY    49  43  78 W8        29.78S
$$

ILZ033-039-045-046-055>057-062-063-240600-
EAST-CENTRAL ILLINOIS

CITY           SKY/WX    TMP DP  RH WIND       PRES   REMARKS
DANVILLE*      LGT RAIN  49  47  95 W10       29.67F
RANTOUL*       CLOUDY    51  49  96 W8        29.69F
MATTOON        CLOUDY    50  48  93 W14       29.75F
PARIS*         CLOUDY    49  47  93 W12G17    29.73S
$$

ILZ079-100>102-240600-
SOUTHWEST ILLINOIS

CITY           SKY/WX    TMP DP  RH WIND       PRES   REMARKS
ALTON          CLOUDY    54  40  59 NW15G28   29.83F
BELLEVILLE     PTCLDY    53  44  72 W6        29.82F
CAHOKIA*       PTCLDY    57  38  48 W17G23    29.85F
SPARTA*        CLOUDY    54  44  68 NW7       29.86F
$$

ILZ064>066-069>071-074>076-080>082-084>086-088>090-092>094-240600-
SOUTH-CENTRAL ILLINOIS

CITY           SKY/WX    TMP DP  RH WIND       PRES   REMARKS
CARBONDALE     CLOUDY    53  48  83 W9        29.85F
CAIRO*         CLEAR     55  45  68 NW3       29.87S
EFFINGHAM*     CLOUDY    51  50  94 SW8       29.78F
MARION         LGT RAIN  55  49  80 W6        29.84F
MT. VERNON     LGT RAIN  52  47  83 VRB7G21   29.82S
CENTRALIA*     LGT RAIN  53  45  74 W12       29.80F
SALEM*         CLOUDY    54  48  82 W9        29.80F
METROPOLIS*    CLEAR     55  46  71 W8        29.87S
$$

ILZ067-068-072-073-078-083-087-091-240600-
SOUTHEAST ILLINOIS

CITY           SKY/WX    TMP DP  RH WIND       PRES   REMARKS
LAWRENCEVILLE  LGT RAIN  53  32  44 W7        29.76F
FLORA*         CLOUDY    53  49  83 W8        29.79S
FAIRFIELD*     MOCLDY    52  48  87 CALM      29.78F
HARRISBURG*    CLEAR     52  48  87 S9        29.83S
ROBINSON*      CLOUDY    50  48  93 W7        29.77F
CARMI*         CLOUDY    52  48  85 W7        29.79S
$$

ABBREVIATIONS USED IN REMARKS
   TC - TEMPERATURE IN CELSIUS
  WCI - WIND CHILL INDEX
   HX - HEAT INDEX
  VSB - VISIBILITY
$$





USA.gov is the U.S. government's official web portal to all federal, state and local government web resources and services.